Year,Month,Day,Hour,Minute,Value (Times are PST for temperature in C)
2009,07,05,00,00,17.00
2009,07,05,00,01,17.00
2009,07,05,00,02,16.90
2009,07,05,00,03,16.90
2009,07,05,00,04,16.90
2009,07,05,00,05,16.90
2009,07,05,00,06,16.90
2009,07,05,00,07,16.90
2009,07,05,00,08,16.80
2009,07,05,00,09,16.80
2009,07,05,00,10,16.80
2009,07,05,00,11,16.80
2009,07,05,00,12,16.80
2009,07,05,00,13,16.80
2009,07,05,00,14,16.80
2009,07,05,00,15,16.80
2009,07,05,00,16,16.80
2009,07,05,00,17,16.70
2009,07,05,00,18,16.70
2009,07,05,00,19,16.70
2009,07,05,00,20,16.70
2009,07,05,00,21,16.70
2009,07,05,00,22,16.60
2009,07,05,00,23,16.60
2009,07,05,00,24,16.60
2009,07,05,00,25,16.60
2009,07,05,00,26,16.50
2009,07,05,00,27,16.50
2009,07,05,00,28,16.50
2009,07,05,00,29,16.40
2009,07,05,00,30,16.40
2009,07,05,00,31,16.40
2009,07,05,00,32,16.40
2009,07,05,00,33,16.40
2009,07,05,00,34,16.30
2009,07,05,00,35,16.30
2009,07,05,00,36,16.30
2009,07,05,00,37,16.30
2009,07,05,00,38,16.30
2009,07,05,00,39,16.30
2009,07,05,00,40,16.30
2009,07,05,00,41,16.20
2009,07,05,00,42,16.20
2009,07,05,00,43,16.20
2009,07,05,00,44,16.20
2009,07,05,00,45,16.20
2009,07,05,00,46,16.20
2009,07,05,00,47,16.20
2009,07,05,00,48,16.10
2009,07,05,00,49,16.10
2009,07,05,00,50,16.10
2009,07,05,00,51,16.10
2009,07,05,00,52,16.10
2009,07,05,00,53,16.10
2009,07,05,00,54,16.10
2009,07,05,00,55,16.00
2009,07,05,00,56,16.00
2009,07,05,00,57,16.00
2009,07,05,00,58,16.00
2009,07,05,00,59,16.00
2009,07,05,01,00,16.00
2009,07,05,01,01,16.00
2009,07,05,01,02,16.00
2009,07,05,01,03,16.00
2009,07,05,01,04,16.00
2009,07,05,01,05,16.00
2009,07,05,01,06,16.00
2009,07,05,01,07,15.90
2009,07,05,01,08,15.90
2009,07,05,01,09,15.90
2009,07,05,01,10,15.90
2009,07,05,01,11,15.90
2009,07,05,01,12,15.90
2009,07,05,01,13,15.90
2009,07,05,01,14,15.90
2009,07,05,01,15,15.90
2009,07,05,01,16,15.90
2009,07,05,01,17,15.90
2009,07,05,01,18,15.90
2009,07,05,01,19,15.90
2009,07,05,01,20,15.90
2009,07,05,01,21,15.80
2009,07,05,01,22,15.80
2009,07,05,01,23,15.80
2009,07,05,01,24,15.80
2009,07,05,01,25,15.80
2009,07,05,01,26,15.80
2009,07,05,01,27,15.70
2009,07,05,01,28,15.70
2009,07,05,01,29,15.70
2009,07,05,01,30,15.70
2009,07,05,01,31,15.60
2009,07,05,01,32,15.60
2009,07,05,01,33,15.60
2009,07,05,01,34,15.60
2009,07,05,01,35,15.60
2009,07,05,01,36,15.60
2009,07,05,01,37,15.60
2009,07,05,01,38,15.60
2009,07,05,01,39,15.60
2009,07,05,01,40,15.60
2009,07,05,01,41,15.60
2009,07,05,01,42,15.60
2009,07,05,01,43,15.60
2009,07,05,01,44,15.50
2009,07,05,01,45,15.50
2009,07,05,01,46,15.50
2009,07,05,01,47,15.50
2009,07,05,01,48,15.40
2009,07,05,01,49,15.40
2009,07,05,01,50,15.40
2009,07,05,01,51,15.40
2009,07,05,01,52,15.30
2009,07,05,01,53,15.30
2009,07,05,01,54,15.30
2009,07,05,01,55,15.30
2009,07,05,01,56,15.30
2009,07,05,01,57,15.30
2009,07,05,01,58,15.30
2009,07,05,01,59,15.30
2009,07,05,02,00,15.20
2009,07,05,02,01,15.20
2009,07,05,02,02,15.20
2009,07,05,02,03,15.20
2009,07,05,02,04,15.20
2009,07,05,02,05,15.20
2009,07,05,02,06,15.20
2009,07,05,02,07,15.10
2009,07,05,02,08,15.10
2009,07,05,02,09,15.10
2009,07,05,02,10,15.10
2009,07,05,02,11,15.10
2009,07,05,02,12,15.10
2009,07,05,02,13,15.10
2009,07,05,02,14,15.00
2009,07,05,02,15,15.00
2009,07,05,02,16,15.00
2009,07,05,02,17,15.00
2009,07,05,02,18,15.00
2009,07,05,02,19,15.00
2009,07,05,02,20,15.00
2009,07,05,02,21,15.00
2009,07,05,02,22,15.00
2009,07,05,02,23,15.00
2009,07,05,02,24,15.00
2009,07,05,02,25,15.00
2009,07,05,02,26,15.00
2009,07,05,02,27,15.00
2009,07,05,02,28,15.00
2009,07,05,02,29,15.00
2009,07,05,02,30,15.00
2009,07,05,02,31,15.00
2009,07,05,02,32,15.00
2009,07,05,02,33,15.00
2009,07,05,02,34,15.00
2009,07,05,02,35,15.00
2009,07,05,02,36,15.00
2009,07,05,02,37,14.90
2009,07,05,02,38,14.90
2009,07,05,02,39,14.80
2009,07,05,02,40,14.80
2009,07,05,02,41,14.80
2009,07,05,02,42,14.80
2009,07,05,02,43,14.70
2009,07,05,02,44,14.70
2009,07,05,02,45,14.70
2009,07,05,02,46,14.70
2009,07,05,02,47,14.70
2009,07,05,02,48,14.70
2009,07,05,02,49,14.60
2009,07,05,02,50,14.60
2009,07,05,02,51,14.60
2009,07,05,02,52,14.60
2009,07,05,02,53,14.60
2009,07,05,02,54,14.60
2009,07,05,02,55,14.50
2009,07,05,02,56,14.50
2009,07,05,02,57,14.50
2009,07,05,02,58,14.50
2009,07,05,02,59,14.40
2009,07,05,03,00,14.40
2009,07,05,03,01,14.40
2009,07,05,03,02,14.40
2009,07,05,03,03,14.40
2009,07,05,03,04,14.40
2009,07,05,03,05,14.40
2009,07,05,03,06,14.30
2009,07,05,03,07,14.30
2009,07,05,03,08,14.30
2009,07,05,03,09,14.20
2009,07,05,03,10,14.20
2009,07,05,03,11,14.20
2009,07,05,03,12,14.10
2009,07,05,03,13,14.10
2009,07,05,03,14,14.10
2009,07,05,03,15,14.10
2009,07,05,03,16,14.00
2009,07,05,03,17,14.00
2009,07,05,03,18,14.00
2009,07,05,03,19,13.90
2009,07,05,03,20,13.90
2009,07,05,03,21,13.90
2009,07,05,03,22,13.90
2009,07,05,03,23,13.80
2009,07,05,03,24,13.80
2009,07,05,03,25,13.80
2009,07,05,03,26,13.80
2009,07,05,03,27,13.80
2009,07,05,03,28,13.80
2009,07,05,03,29,13.80
2009,07,05,03,30,13.80
2009,07,05,03,31,13.80
2009,07,05,03,32,13.80
2009,07,05,03,33,13.80
2009,07,05,03,34,13.80
2009,07,05,03,35,13.80
2009,07,05,03,36,13.80
2009,07,05,03,37,13.80
2009,07,05,03,38,13.80
2009,07,05,03,39,13.70
2009,07,05,03,40,13.70
2009,07,05,03,41,13.70
2009,07,05,03,42,13.70
2009,07,05,03,43,13.70
2009,07,05,03,44,13.70
2009,07,05,03,45,13.60
2009,07,05,03,46,13.60
2009,07,05,03,47,13.60
2009,07,05,03,48,13.60
2009,07,05,03,49,13.60
2009,07,05,03,50,13.60
2009,07,05,03,51,13.60
2009,07,05,03,52,13.60
2009,07,05,03,53,13.60
2009,07,05,03,54,13.60
2009,07,05,03,55,13.60
2009,07,05,03,56,13.60
2009,07,05,03,57,13.60
2009,07,05,03,58,13.60
2009,07,05,03,59,13.60
2009,07,05,04,00,13.60
2009,07,05,04,01,13.60
2009,07,05,04,02,13.60
2009,07,05,04,03,13.60
2009,07,05,04,04,13.60
2009,07,05,04,05,13.60
2009,07,05,04,06,13.60
2009,07,05,04,07,13.60
2009,07,05,04,08,13.50
2009,07,05,04,09,13.50
2009,07,05,04,10,13.40
2009,07,05,04,11,13.40
2009,07,05,04,12,13.40
2009,07,05,04,13,13.40
2009,07,05,04,14,13.30
2009,07,05,04,15,13.30
2009,07,05,04,16,13.30
2009,07,05,04,17,13.30
2009,07,05,04,18,13.20
2009,07,05,04,19,13.20
2009,07,05,04,20,13.20
2009,07,05,04,21,13.20
2009,07,05,04,22,13.20
2009,07,05,04,23,13.20
2009,07,05,04,24,13.20
2009,07,05,04,25,13.20
2009,07,05,04,26,13.30
2009,07,05,04,27,13.30
2009,07,05,04,28,13.30
2009,07,05,04,29,13.30
2009,07,05,04,30,13.30
2009,07,05,04,31,13.30
2009,07,05,04,32,13.30
2009,07,05,04,33,13.30
2009,07,05,04,34,13.30
2009,07,05,04,35,13.30
2009,07,05,04,36,13.30
2009,07,05,04,37,13.30
2009,07,05,04,38,13.30
2009,07,05,04,39,13.20
2009,07,05,04,40,13.20
2009,07,05,04,41,13.20
2009,07,05,04,42,13.20
2009,07,05,04,43,13.10
2009,07,05,04,44,13.10
2009,07,05,04,45,13.10
2009,07,05,04,46,13.10
2009,07,05,04,47,13.10
2009,07,05,04,48,13.10
2009,07,05,04,49,13.10
2009,07,05,04,50,13.10
2009,07,05,04,51,13.10
2009,07,05,04,52,13.20
2009,07,05,04,53,13.20
2009,07,05,04,54,13.20
2009,07,05,04,55,13.20
2009,07,05,04,56,13.20
2009,07,05,04,57,13.20
2009,07,05,04,58,13.20
2009,07,05,04,59,13.20
2009,07,05,05,00,13.20
2009,07,05,05,01,13.20
2009,07,05,05,02,13.20
2009,07,05,05,03,13.10
2009,07,05,05,04,13.10
2009,07,05,05,05,13.00
2009,07,05,05,06,13.00
2009,07,05,05,07,12.90
2009,07,05,05,08,12.90
2009,07,05,05,09,12.80
2009,07,05,05,10,12.80
2009,07,05,05,11,12.70
2009,07,05,05,12,12.70
2009,07,05,05,13,12.70
2009,07,05,05,14,12.70
2009,07,05,05,15,12.70
2009,07,05,05,16,12.70
2009,07,05,05,17,12.80
2009,07,05,05,18,12.80
2009,07,05,05,19,12.90
2009,07,05,05,20,12.90
2009,07,05,05,21,12.90
2009,07,05,05,22,12.90
2009,07,05,05,23,12.90
2009,07,05,05,24,12.90
2009,07,05,05,25,12.90
2009,07,05,05,26,12.90
2009,07,05,05,27,12.90
2009,07,05,05,28,12.90
2009,07,05,05,29,13.00
2009,07,05,05,30,13.00
2009,07,05,05,31,13.00
2009,07,05,05,32,13.00
2009,07,05,05,33,13.00
2009,07,05,05,34,13.00
2009,07,05,05,35,13.00
2009,07,05,05,36,13.10
2009,07,05,05,37,13.10
2009,07,05,05,38,13.10
2009,07,05,05,39,13.10
2009,07,05,05,40,13.10
2009,07,05,05,41,13.10
2009,07,05,05,42,13.10
2009,07,05,05,43,13.10
2009,07,05,05,44,13.10
2009,07,05,05,45,13.20
2009,07,05,05,46,13.20
2009,07,05,05,47,13.20
2009,07,05,05,48,13.20
2009,07,05,05,49,13.20
2009,07,05,05,50,13.30
2009,07,05,05,51,13.30
2009,07,05,05,52,13.40
2009,07,05,05,53,13.40
2009,07,05,05,54,13.50
2009,07,05,05,55,13.50
2009,07,05,05,56,13.60
2009,07,05,05,57,13.70
2009,07,05,05,58,13.80
2009,07,05,05,59,13.80
2009,07,05,06,00,13.90
2009,07,05,06,01,14.00
2009,07,05,06,02,14.00
2009,07,05,06,03,14.10
2009,07,05,06,04,14.20
2009,07,05,06,05,14.20
2009,07,05,06,06,14.20
2009,07,05,06,07,14.30
2009,07,05,06,08,14.30
2009,07,05,06,09,14.30
2009,07,05,06,10,14.20
2009,07,05,06,11,14.10
2009,07,05,06,12,14.00
2009,07,05,06,13,14.00
2009,07,05,06,14,13.90
2009,07,05,06,15,13.90
2009,07,05,06,16,14.00
2009,07,05,06,17,14.00
2009,07,05,06,18,14.00
2009,07,05,06,19,14.10
2009,07,05,06,20,14.20
2009,07,05,06,21,14.30
2009,07,05,06,22,14.40
2009,07,05,06,23,14.40
2009,07,05,06,24,14.40
2009,07,05,06,25,14.50
2009,07,05,06,26,14.60
2009,07,05,06,27,14.60
2009,07,05,06,28,14.60
2009,07,05,06,29,14.60
2009,07,05,06,30,14.70
2009,07,05,06,31,14.70
2009,07,05,06,32,14.70
2009,07,05,06,33,14.70
2009,07,05,06,34,14.70
2009,07,05,06,35,14.70
2009,07,05,06,36,14.70
2009,07,05,06,37,14.80
2009,07,05,06,38,14.80
2009,07,05,06,39,14.80
2009,07,05,06,40,14.80
2009,07,05,06,41,14.80
2009,07,05,06,42,14.80
2009,07,05,06,43,14.80
2009,07,05,06,44,14.80
2009,07,05,06,45,14.80
2009,07,05,06,46,14.80
2009,07,05,06,47,14.80
2009,07,05,06,48,14.80
2009,07,05,06,49,14.80
2009,07,05,06,50,14.80
2009,07,05,06,51,14.80
2009,07,05,06,52,14.90
2009,07,05,06,53,14.90
2009,07,05,06,54,15.00
2009,07,05,06,55,15.00
2009,07,05,06,56,15.00
2009,07,05,06,57,15.00
2009,07,05,06,58,15.00
2009,07,05,06,59,15.00
2009,07,05,07,00,15.10
2009,07,05,07,01,15.10
2009,07,05,07,02,15.20
2009,07,05,07,03,15.30
2009,07,05,07,04,15.30
2009,07,05,07,05,15.40
2009,07,05,07,06,15.40
2009,07,05,07,07,15.50
2009,07,05,07,08,15.50
2009,07,05,07,09,15.60
2009,07,05,07,10,15.60
2009,07,05,07,11,15.70
2009,07,05,07,12,15.70
2009,07,05,07,13,15.70
2009,07,05,07,14,15.80
2009,07,05,07,15,15.90
2009,07,05,07,16,15.90
2009,07,05,07,17,16.00
2009,07,05,07,18,16.00
2009,07,05,07,19,16.10
2009,07,05,07,20,16.10
2009,07,05,07,21,16.10
2009,07,05,07,22,16.10
2009,07,05,07,23,16.10
2009,07,05,07,24,16.20
2009,07,05,07,25,16.20
2009,07,05,07,26,16.20
2009,07,05,07,27,16.20
2009,07,05,07,28,16.20
2009,07,05,07,29,16.30
2009,07,05,07,30,16.30
2009,07,05,07,31,16.30
2009,07,05,07,32,16.40
2009,07,05,07,33,16.50
2009,07,05,07,34,16.60
2009,07,05,07,35,16.60
2009,07,05,07,36,16.70
2009,07,05,07,37,16.70
2009,07,05,07,38,16.70
2009,07,05,07,39,16.70
2009,07,05,07,40,16.70
2009,07,05,07,41,16.80
2009,07,05,07,42,16.90
2009,07,05,07,43,16.90
2009,07,05,07,44,17.10
2009,07,05,07,45,17.10
2009,07,05,07,46,17.20
2009,07,05,07,47,17.30
2009,07,05,07,48,17.40
2009,07,05,07,49,17.40
2009,07,05,07,50,17.40
2009,07,05,07,51,17.50
2009,07,05,07,52,17.50
2009,07,05,07,53,17.60
2009,07,05,07,54,17.60
2009,07,05,07,55,17.60
2009,07,05,07,56,17.70
2009,07,05,07,57,17.70
2009,07,05,07,58,17.80
2009,07,05,07,59,17.80
2009,07,05,08,00,18.00
2009,07,05,08,01,18.10
2009,07,05,08,02,18.20
2009,07,05,08,03,18.30
2009,07,05,08,04,18.40
2009,07,05,08,05,18.50
2009,07,05,08,06,18.50
2009,07,05,08,07,18.60
2009,07,05,08,08,18.70
2009,07,05,08,09,18.70
2009,07,05,08,10,18.80
2009,07,05,08,11,18.90
2009,07,05,08,12,18.90
2009,07,05,08,13,18.90
2009,07,05,08,14,18.90
2009,07,05,08,15,18.80
2009,07,05,08,16,18.70
2009,07,05,08,17,18.70
2009,07,05,08,18,18.60
2009,07,05,08,19,18.60
2009,07,05,08,20,18.60
2009,07,05,08,21,18.50
2009,07,05,08,22,18.50
2009,07,05,08,23,18.50
2009,07,05,08,24,18.60
2009,07,05,08,25,18.60
2009,07,05,08,26,18.60
2009,07,05,08,27,18.70
2009,07,05,08,28,18.70
2009,07,05,08,29,18.70
2009,07,05,08,30,18.80
2009,07,05,08,31,18.90
2009,07,05,08,32,18.90
2009,07,05,08,33,19.00
2009,07,05,08,34,19.10
2009,07,05,08,35,19.20
2009,07,05,08,36,19.20
2009,07,05,08,37,19.30
2009,07,05,08,38,19.40
2009,07,05,08,39,19.40
2009,07,05,08,40,19.50
2009,07,05,08,41,19.50
2009,07,05,08,42,19.50
2009,07,05,08,43,19.50
2009,07,05,08,44,19.50
2009,07,05,08,45,19.50
2009,07,05,08,46,19.60
2009,07,05,08,47,19.60
2009,07,05,08,48,19.70
2009,07,05,08,49,19.70
2009,07,05,08,50,19.80
2009,07,05,08,51,19.80
2009,07,05,08,52,19.90
2009,07,05,08,53,19.90
2009,07,05,08,54,20.00
2009,07,05,08,55,20.00
2009,07,05,08,56,20.10
2009,07,05,08,57,20.20
2009,07,05,08,58,20.20
2009,07,05,08,59,20.20
2009,07,05,09,00,20.30
2009,07,05,09,01,20.30
2009,07,05,09,02,20.40
2009,07,05,09,03,20.40
2009,07,05,09,04,20.40
2009,07,05,09,05,20.50
2009,07,05,09,06,20.50
2009,07,05,09,07,20.50
2009,07,05,09,08,20.30
2009,07,05,09,09,20.20
2009,07,05,09,10,20.00
2009,07,05,09,11,19.90
2009,07,05,09,12,19.70
2009,07,05,09,13,19.60
2009,07,05,09,14,19.40
2009,07,05,09,15,19.30
2009,07,05,09,16,19.20
2009,07,05,09,17,19.10
2009,07,05,09,18,19.10
2009,07,05,09,19,19.00
2009,07,05,09,20,18.90
2009,07,05,09,21,18.90
2009,07,05,09,22,18.80
2009,07,05,09,23,18.70
2009,07,05,09,24,18.70
2009,07,05,09,25,18.70
2009,07,05,09,26,18.70
2009,07,05,09,27,18.70
2009,07,05,09,28,18.60
2009,07,05,09,29,18.60
2009,07,05,09,30,18.60
2009,07,05,09,31,18.50
2009,07,05,09,32,18.60
2009,07,05,09,33,18.60
2009,07,05,09,34,18.60
2009,07,05,09,35,18.60
2009,07,05,09,36,18.70
2009,07,05,09,37,18.70
2009,07,05,09,38,18.70
2009,07,05,09,39,18.70
2009,07,05,09,40,18.70
2009,07,05,09,41,18.70
2009,07,05,09,42,18.70
2009,07,05,09,43,18.70
2009,07,05,09,44,18.70
2009,07,05,09,45,18.60
2009,07,05,09,46,18.50
2009,07,05,09,47,18.50
2009,07,05,09,48,18.40
2009,07,05,09,49,18.40
2009,07,05,09,50,18.40
2009,07,05,09,51,18.30
2009,07,05,09,52,18.40
2009,07,05,09,53,18.40
2009,07,05,09,54,18.40
2009,07,05,09,55,18.50
2009,07,05,09,56,18.50
2009,07,05,09,57,18.60
2009,07,05,09,58,18.70
2009,07,05,09,59,18.70
2009,07,05,10,00,18.80
2009,07,05,10,01,18.90
2009,07,05,10,02,19.00
2009,07,05,10,03,19.20
2009,07,05,10,04,19.30
2009,07,05,10,05,19.40
2009,07,05,10,06,19.60
2009,07,05,10,07,19.70
2009,07,05,10,08,19.90
2009,07,05,10,09,20.00
2009,07,05,10,10,20.10
2009,07,05,10,11,20.20
2009,07,05,10,12,20.30
2009,07,05,10,13,20.30
2009,07,05,10,14,20.30
2009,07,05,10,15,20.30
2009,07,05,10,16,20.40
2009,07,05,10,17,20.60
2009,07,05,10,18,20.70
2009,07,05,10,19,20.90
2009,07,05,10,20,21.10
2009,07,05,10,21,21.20
2009,07,05,10,22,21.30
2009,07,05,10,23,21.50
2009,07,05,10,24,21.60
2009,07,05,10,25,21.70
2009,07,05,10,26,21.80
2009,07,05,10,27,21.80
2009,07,05,10,28,21.80
2009,07,05,10,29,21.80
2009,07,05,10,30,21.80
2009,07,05,10,31,21.90
2009,07,05,10,32,21.90
2009,07,05,10,33,21.90
2009,07,05,10,34,21.90
2009,07,05,10,35,21.90
2009,07,05,10,36,22.00
2009,07,05,10,37,22.10
2009,07,05,10,38,22.20
2009,07,05,10,39,22.30
2009,07,05,10,40,22.40
2009,07,05,10,41,22.40
2009,07,05,10,42,22.40
2009,07,05,10,43,22.30
2009,07,05,10,44,22.30
2009,07,05,10,45,22.20
2009,07,05,10,46,22.20
2009,07,05,10,47,22.20
2009,07,05,10,48,22.10
2009,07,05,10,49,22.20
2009,07,05,10,50,22.20
2009,07,05,10,51,22.30
2009,07,05,10,52,22.30
2009,07,05,10,53,22.30
2009,07,05,10,54,22.40
2009,07,05,10,55,22.50
2009,07,05,10,56,22.50
2009,07,05,10,57,22.50
2009,07,05,10,58,22.40
2009,07,05,10,59,22.30
2009,07,05,11,00,22.40
2009,07,05,11,01,22.40
2009,07,05,11,02,22.40
2009,07,05,11,03,22.40
2009,07,05,11,04,22.40
2009,07,05,11,05,22.30
2009,07,05,11,06,22.30
2009,07,05,11,07,22.30
2009,07,05,11,08,22.40
2009,07,05,11,09,22.50
2009,07,05,11,10,22.60
2009,07,05,11,11,22.50
2009,07,05,11,12,22.50
2009,07,05,11,13,22.50
2009,07,05,11,14,22.40
2009,07,05,11,15,22.40
2009,07,05,11,16,22.50
2009,07,05,11,17,22.60
2009,07,05,11,18,22.70
2009,07,05,11,19,22.80
2009,07,05,11,20,22.70
2009,07,05,11,21,22.70
2009,07,05,11,22,22.60
2009,07,05,11,23,22.70
2009,07,05,11,24,22.70
2009,07,05,11,25,22.60
2009,07,05,11,26,22.60
2009,07,05,11,27,22.50
2009,07,05,11,28,22.40
2009,07,05,11,29,22.30
2009,07,05,11,30,22.30
2009,07,05,11,31,22.30
2009,07,05,11,32,22.40
2009,07,05,11,33,22.40
2009,07,05,11,34,22.40
2009,07,05,11,35,22.30
2009,07,05,11,36,22.20
2009,07,05,11,37,22.10
2009,07,05,11,38,22.10
2009,07,05,11,39,22.00
2009,07,05,11,40,22.00
2009,07,05,11,41,21.90
2009,07,05,11,42,21.90
2009,07,05,11,43,21.90
2009,07,05,11,44,21.80
2009,07,05,11,45,21.80
2009,07,05,11,46,21.70
2009,07,05,11,47,21.60
2009,07,05,11,48,21.50
2009,07,05,11,49,21.50
2009,07,05,11,50,21.40
2009,07,05,11,51,21.20
2009,07,05,11,52,21.10
2009,07,05,11,53,21.00
2009,07,05,11,54,20.90
2009,07,05,11,55,20.80
2009,07,05,11,56,20.80
2009,07,05,11,57,20.80
2009,07,05,11,58,21.00
2009,07,05,11,59,21.10
2009,07,05,12,00,21.20
2009,07,05,12,01,21.30
2009,07,05,12,02,21.40
2009,07,05,12,03,21.50
2009,07,05,12,04,21.50
2009,07,05,12,05,21.50
2009,07,05,12,06,21.50
2009,07,05,12,07,21.60
2009,07,05,12,08,21.50
2009,07,05,12,09,21.40
2009,07,05,12,10,21.20
2009,07,05,12,11,21.10
2009,07,05,12,12,21.10
2009,07,05,12,13,21.00
2009,07,05,12,14,21.00
2009,07,05,12,15,21.10
2009,07,05,12,16,21.10
2009,07,05,12,17,21.10
2009,07,05,12,18,21.20
2009,07,05,12,19,21.20
2009,07,05,12,20,21.20
2009,07,05,12,21,21.30
2009,07,05,12,22,21.50
2009,07,05,12,23,21.60
2009,07,05,12,24,21.70
2009,07,05,12,25,21.80
2009,07,05,12,26,21.80
2009,07,05,12,27,21.80
2009,07,05,12,28,21.80
2009,07,05,12,29,21.80
2009,07,05,12,30,21.80
2009,07,05,12,31,21.80
2009,07,05,12,32,21.80
2009,07,05,12,33,21.80
2009,07,05,12,34,21.80
2009,07,05,12,35,21.90
2009,07,05,12,36,22.00
2009,07,05,12,37,22.10
2009,07,05,12,38,22.20
2009,07,05,12,39,22.30
2009,07,05,12,40,22.30
2009,07,05,12,41,22.30
2009,07,05,12,42,22.20
2009,07,05,12,43,22.20
2009,07,05,12,44,22.20
2009,07,05,12,45,22.30
2009,07,05,12,46,22.40
2009,07,05,12,47,22.50
2009,07,05,12,48,22.60
2009,07,05,12,49,22.70
2009,07,05,12,50,22.80
2009,07,05,12,51,22.80
2009,07,05,12,52,22.90
2009,07,05,12,53,22.90
2009,07,05,12,54,22.90
2009,07,05,12,55,22.90
2009,07,05,12,56,22.90
2009,07,05,12,57,22.80
2009,07,05,12,58,22.60
2009,07,05,12,59,22.50
2009,07,05,13,00,22.40
2009,07,05,13,01,22.30
2009,07,05,13,02,22.30
2009,07,05,13,03,22.20
2009,07,05,13,04,22.20
2009,07,05,13,05,22.20
2009,07,05,13,06,22.30
2009,07,05,13,07,22.50
2009,07,05,13,08,22.60
2009,07,05,13,09,22.70
2009,07,05,13,10,22.70
2009,07,05,13,11,22.80
2009,07,05,13,12,23.00
2009,07,05,13,13,23.10
2009,07,05,13,14,23.10
2009,07,05,13,15,23.20
2009,07,05,13,16,23.20
2009,07,05,13,17,23.30
2009,07,05,13,18,23.40
2009,07,05,13,19,23.40
2009,07,05,13,20,23.60
2009,07,05,13,21,23.70
2009,07,05,13,22,23.60
2009,07,05,13,23,23.50
2009,07,05,13,24,23.40
2009,07,05,13,25,23.30
2009,07,05,13,26,23.30
2009,07,05,13,27,23.30
2009,07,05,13,28,23.30
2009,07,05,13,29,23.30
2009,07,05,13,30,23.30
2009,07,05,13,31,23.40
2009,07,05,13,32,23.40
2009,07,05,13,33,23.30
2009,07,05,13,34,23.30
2009,07,05,13,35,23.30
2009,07,05,13,36,23.30
2009,07,05,13,37,23.30
2009,07,05,13,38,23.30
2009,07,05,13,39,23.20
2009,07,05,13,40,23.10
2009,07,05,13,41,23.10
2009,07,05,13,42,23.10
2009,07,05,13,43,23.20
2009,07,05,13,44,23.30
2009,07,05,13,45,23.40
2009,07,05,13,46,23.50
2009,07,05,13,47,23.50
2009,07,05,13,48,23.50
2009,07,05,13,49,23.50
2009,07,05,13,50,23.50
2009,07,05,13,51,23.50
2009,07,05,13,52,23.40
2009,07,05,13,53,23.50
2009,07,05,13,54,23.50
2009,07,05,13,55,23.50
2009,07,05,13,56,23.30
2009,07,05,13,57,23.20
2009,07,05,13,58,23.20
2009,07,05,13,59,23.00
2009,07,05,14,00,22.90
2009,07,05,14,01,22.90
2009,07,05,14,02,22.90
2009,07,05,14,03,22.90
2009,07,05,14,04,23.00
2009,07,05,14,05,23.00
2009,07,05,14,06,23.00
2009,07,05,14,07,23.00
2009,07,05,14,08,22.90
2009,07,05,14,09,22.80
2009,07,05,14,10,22.70
2009,07,05,14,11,22.70
2009,07,05,14,12,22.70
2009,07,05,14,13,22.80
2009,07,05,14,14,22.90
2009,07,05,14,15,22.90
2009,07,05,14,16,22.90
2009,07,05,14,17,22.90
2009,07,05,14,18,22.80
2009,07,05,14,19,22.80
2009,07,05,14,20,22.80
2009,07,05,14,21,22.90
2009,07,05,14,22,23.00
2009,07,05,14,23,23.10
2009,07,05,14,24,23.20
2009,07,05,14,25,23.30
2009,07,05,14,26,23.40
2009,07,05,14,27,23.50
2009,07,05,14,28,23.60
2009,07,05,14,29,23.60
2009,07,05,14,30,23.40
2009,07,05,14,31,23.20
2009,07,05,14,32,23.10
2009,07,05,14,33,23.00
2009,07,05,14,34,22.80
2009,07,05,14,35,22.70
2009,07,05,14,36,22.70
2009,07,05,14,37,22.80
2009,07,05,14,38,22.90
2009,07,05,14,39,23.00
2009,07,05,14,40,22.90
2009,07,05,14,41,22.90
2009,07,05,14,42,22.90
2009,07,05,14,43,22.90
2009,07,05,14,44,23.00
2009,07,05,14,45,23.10
2009,07,05,14,46,23.30
2009,07,05,14,47,23.40
2009,07,05,14,48,23.40
2009,07,05,14,49,23.50
2009,07,05,14,50,23.50
2009,07,05,14,51,23.50
2009,07,05,14,52,23.60
2009,07,05,14,53,23.60
2009,07,05,14,54,23.80
2009,07,05,14,55,23.90
2009,07,05,14,56,23.90
2009,07,05,14,57,23.90
2009,07,05,14,58,23.70
2009,07,05,14,59,23.50
2009,07,05,15,00,23.40
2009,07,05,15,01,23.30
2009,07,05,15,02,23.20
2009,07,05,15,03,23.20
2009,07,05,15,04,23.20
2009,07,05,15,05,23.30
2009,07,05,15,06,23.40
2009,07,05,15,07,23.40
2009,07,05,15,08,23.40
2009,07,05,15,09,23.40
2009,07,05,15,10,23.30
2009,07,05,15,11,23.30
2009,07,05,15,12,23.30
2009,07,05,15,13,23.30
2009,07,05,15,14,23.30
2009,07,05,15,15,23.30
2009,07,05,15,16,23.40
2009,07,05,15,17,23.40
2009,07,05,15,18,23.40
2009,07,05,15,19,23.40
2009,07,05,15,20,23.40
2009,07,05,15,21,23.40
2009,07,05,15,22,23.50
2009,07,05,15,23,23.70
2009,07,05,15,24,23.80
2009,07,05,15,25,24.00
2009,07,05,15,26,24.20
2009,07,05,15,27,24.30
2009,07,05,15,28,24.30
2009,07,05,15,29,24.30
2009,07,05,15,30,24.20
2009,07,05,15,31,24.10
2009,07,05,15,32,24.10
2009,07,05,15,33,24.20
2009,07,05,15,34,24.20
2009,07,05,15,35,24.10
2009,07,05,15,36,24.00
2009,07,05,15,37,24.00
2009,07,05,15,38,24.00
2009,07,05,15,39,24.00
2009,07,05,15,40,24.10
2009,07,05,15,41,24.10
2009,07,05,15,42,24.20
2009,07,05,15,43,24.20
2009,07,05,15,44,24.20
2009,07,05,15,45,24.30
2009,07,05,15,46,24.30
2009,07,05,15,47,24.30
2009,07,05,15,48,24.40
2009,07,05,15,49,24.30
2009,07,05,15,50,24.30
2009,07,05,15,51,24.40
2009,07,05,15,52,24.50
2009,07,05,15,53,24.70
2009,07,05,15,54,24.80
2009,07,05,15,55,24.90
2009,07,05,15,56,25.00
2009,07,05,15,57,25.00
2009,07,05,15,58,25.00
2009,07,05,15,59,25.00
2009,07,05,16,00,25.00
2009,07,05,16,01,24.90
2009,07,05,16,02,24.90
2009,07,05,16,03,24.80
2009,07,05,16,04,24.90
2009,07,05,16,05,24.90
2009,07,05,16,06,24.90
2009,07,05,16,07,24.90
2009,07,05,16,08,24.90
2009,07,05,16,09,24.90
2009,07,05,16,10,24.90
2009,07,05,16,11,24.90
2009,07,05,16,12,24.90
2009,07,05,16,13,24.90
2009,07,05,16,14,24.90
2009,07,05,16,15,25.00
2009,07,05,16,16,25.00
2009,07,05,16,17,24.90
2009,07,05,16,18,24.80
2009,07,05,16,19,24.90
2009,07,05,16,20,24.90
2009,07,05,16,21,24.90
2009,07,05,16,22,24.90
2009,07,05,16,23,24.80
2009,07,05,16,24,24.80
2009,07,05,16,25,24.90
2009,07,05,16,26,24.80
2009,07,05,16,27,24.80
2009,07,05,16,28,24.80
2009,07,05,16,29,24.80
2009,07,05,16,30,24.80
2009,07,05,16,31,24.80
2009,07,05,16,32,24.90
2009,07,05,16,33,25.10
2009,07,05,16,34,25.10
2009,07,05,16,35,25.10
2009,07,05,16,36,25.00
2009,07,05,16,37,25.00
2009,07,05,16,38,24.90
2009,07,05,16,39,24.80
2009,07,05,16,40,24.80
2009,07,05,16,41,24.80
2009,07,05,16,42,24.80
2009,07,05,16,43,24.80
2009,07,05,16,44,24.80
2009,07,05,16,45,24.90
2009,07,05,16,46,24.90
2009,07,05,16,47,25.00
2009,07,05,16,48,25.00
2009,07,05,16,49,25.00
2009,07,05,16,50,25.00
2009,07,05,16,51,24.90
2009,07,05,16,52,24.90
2009,07,05,16,53,24.90
2009,07,05,16,54,24.80
2009,07,05,16,55,24.90
2009,07,05,16,56,24.90
2009,07,05,16,57,24.90
2009,07,05,16,58,24.80
2009,07,05,16,59,24.80
2009,07,05,17,00,24.80
2009,07,05,17,01,24.70
2009,07,05,17,02,24.70
2009,07,05,17,03,24.60
2009,07,05,17,04,24.60
2009,07,05,17,05,24.60
2009,07,05,17,06,24.60
2009,07,05,17,07,24.60
2009,07,05,17,08,24.60
2009,07,05,17,09,24.60
2009,07,05,17,10,24.60
2009,07,05,17,11,24.60
2009,07,05,17,12,24.60
2009,07,05,17,13,24.60
2009,07,05,17,14,24.60
2009,07,05,17,15,24.60
2009,07,05,17,16,24.60
2009,07,05,17,17,24.60
2009,07,05,17,18,24.60
2009,07,05,17,19,24.60